Location: Newark
(33.6439°N, 114.9881°W)
Time: 19:51:44
(UTC+00:00)

Tiros 1 - Pass Details

Date: 30 July 2019
Orbit: 631 x 664 km, 48.4° (Epoch: 24 August)

Event Time Altitude Azimuth Distance (km) Brightness Sun altitude
Rises 22:58:35 0° 305° (NW) 2,995 11.1 44.7°
Reaches altitude 10° 23:00:57 10° 303° (WNW) 2,080 10.5 44.2°
Maximum altitude 23:05:42 63° 222° (SW) 736 8.7 43.2°
Drops below altitude 10° 23:10:25 10° 142° (SE) 2,062 9.6 42.2°
Sets 23:12:45 0° 139° (SE) 2,966 10.3 41.7°
